TimeEDT,TemperatureF,Dew PointF,Humidity,Sea Level PressureIn,VisibilityMPH,Wind Direction,Wind SpeedMPH,Gust SpeedMPH,PrecipitationIn,Events,Conditions,WindDirDegrees,DateUTC
12:52 AM,37.9,17.1,43,30.20,10.0,NNW,5.8,-,N/A,,Partly Cloudy,340,2013-03-15 04:52:00
1:52 AM,37.0,17.1,44,30.20,10.0,NW,4.6,-,N/A,,Partly Cloudy,320,2013-03-15 05:52:00
2:52 AM,32.0,19.9,61,30.19,10.0,North,3.5,-,N/A,,Clear,350,2013-03-15 06:52:00
3:52 AM,30.0,21.0,69,30.17,10.0,Calm,Calm,-,N/A,,Clear,0,2013-03-15 07:52:00
4:52 AM,32.0,21.0,64,30.18,10.0,WSW,4.6,-,N/A,,Clear,240,2013-03-15 08:52:00
5:52 AM,30.0,21.9,72,30.18,10.0,SE,3.5,-,N/A,,Clear,130,2013-03-15 09:52:00
6:52 AM,33.1,21.0,61,30.18,10.0,Calm,Calm,-,N/A,,Partly Cloudy,0,2013-03-15 10:52:00
7:52 AM,30.0,23.0,75,30.20,10.0,Calm,Calm,-,N/A,,Partly Cloudy,0,2013-03-15 11:52:00
8:52 AM,37.0,25.0,62,30.22,10.0,WSW,6.9,-,N/A,,Clear,240,2013-03-15 12:52:00
9:52 AM,43.0,21.9,43,30.21,10.0,South,8.1,-,N/A,,Clear,190,2013-03-15 13:52:00
10:52 AM,50.0,19.9,31,30.18,10.0,SW,11.5,-,N/A,,Clear,220,2013-03-15 14:52:00
11:52 AM,54.0,24.1,31,30.15,10.0,SW,9.2,-,N/A,,Partly Cloudy,230,2013-03-15 15:52:00
12:52 PM,57.0,26.1,30,30.12,10.0,South,11.5,17.3,N/A,,Partly Cloudy,190,2013-03-15 16:52:00
1:52 PM,60.1,28.9,31,30.08,10.0,SW,9.2,18.4,N/A,,Mostly Cloudy,220,2013-03-15 17:52:00
2:52 PM,63.0,30.0,29,30.04,10.0,SW,6.9,18.4,N/A,,Mostly Cloudy,220,2013-03-15 18:52:00
3:52 PM,62.1,30.9,31,30.01,10.0,SW,11.5,-,N/A,,Mostly Cloudy,220,2013-03-15 19:52:00
4:52 PM,64.0,34.0,33,29.96,10.0,SSW,10.4,-,N/A,,Scattered Clouds,200,2013-03-15 20:52:00
5:52 PM,66.9,35.1,31,29.94,10.0,SW,9.2,-,N/A,,Mostly Cloudy,220,2013-03-15 21:52:00
6:52 PM,66.0,35.1,32,29.93,10.0,SW,9.2,-,N/A,,Scattered Clouds,230,2013-03-15 22:52:00
7:52 PM,60.1,37.0,42,29.93,10.0,SSW,6.9,-,N/A,,Scattered Clouds,200,2013-03-15 23:52:00
8:52 PM,57.9,37.9,47,29.92,10.0,South,9.2,-,N/A,,Partly Cloudy,190,2013-03-16 00:52:00
9:52 PM,57.0,37.9,49,29.92,10.0,South,8.1,-,N/A,,Clear,190,2013-03-16 01:52:00
10:52 PM,57.9,37.9,47,29.92,10.0,SW,6.9,-,N/A,,Clear,230,2013-03-16 02:52:00
11:52 PM,57.9,39.0,49,29.91,10.0,SW,6.9,-,N/A,,Scattered Clouds,220,2013-03-16 03:52:00